Cape Girardeau, MO

11:20 PM CST on December 11, 2017 (GMT -0600)
Cape Girardeau Regional

Weather History for KCGI - September, 2012

Change the Weather History Date:

Monday, September 24, 2012

  Actual Average Record
Temperature  
Mean Temperature 55 °F 65 °F  
Max Temperature 72 °F 78 °F 92 °F (1961)
Min Temperature 37 °F 53 °F 36 °F (1995)
Degree Days  
Heating Degree Days 10 3  
Month to date heating degree days 40 23  
Since 1 July heating degree days 40 24  
Cooling Degree Days 0 3  
Month to date cooling degree days 127 146  
Year to date cooling degree days 1743 1406  
Growing Degree Days 4 (Base 50)    
Moisture  
Dew Point 41 °F    
Average Humidity 68    
Maximum Humidity 100    
Minimum Humidity 35    
Precipitation  
Precipitation 0.00 in 0.10 in 2.26 in (2000)
Month to date precipitation 4.97 2.63  
Year to date precipitation 20.15 33.68  
Sea Level Pressure  
Sea Level Pressure 30.21 in    
Wind  
Wind Speed 4 mph (South)    
Max Wind Speed 12 mph    
Max Gust Speed 18 mph    
Visibility 6 miles    
Events Fog    
T = Trace of Precipitation, MM = Missing Value Source: NWS Daily Summary

Daily Weather History Graph

Daily Weather History Graph

Search for Another Location

Airport or City:

Trip Planner

Search our weather history database for the weather conditions in past years. The results will help you decide how hot, cold, wet, or windy it might be!

Date:

Astronomy

Sep. 24, 2012 Rise Set
Actual Time 6:48 AM CDT 6:51 PM CDT
Civil Twilight 6:22 AM CDT 7:17 PM CDT
Nautical Twilight 5:51 AM CDT 7:47 PM CDT
Astronomical Twilight 5:21 AM CDT 8:18 PM CDT
Moon 3:31 PM CDT (9/24) 1:11 AM CDT (9/24)
Length of Visible Light 12h 55m
Length of Day
12h 03m
Waxing Gibbous, 71% of the Moon is Illuminated
Sep 24
Waxing Gibbous
Sep 29
Full
Oct 8
Last Quarter
Oct 15
New
Oct 21
First Quarter

Hourly Weather History & Observations

Time (CDT) Temp. Dew Point Humidity Pressure Visibility Wind Dir Wind Speed Gust Speed Precip Events Conditions
12:53 AM 42.1 °F 39.9 °F 92% 30.26 in 10.0 mi Calm Calm - N/A   Clear
1:53 AM 41.0 °F 39.0 °F 93% 30.27 in 10.0 mi Calm Calm - N/A   Clear
2:28 AM 39.2 °F 37.4 °F 93% 30.27 in 1.5 mi Calm Calm - N/A   Clear
2:41 AM 39.2 °F 39.2 °F 100% 30.27 in 3.0 mi Calm Calm - N/A   Clear
2:47 AM 41.0 °F 39.2 °F 93% 30.27 in 0.8 mi Calm Calm - N/A   Clear
2:53 AM 39.9 °F 37.9 °F 93% 30.27 in 0.5 mi Calm Calm - N/A Fog Fog
3:43 AM 39.2 °F 37.4 °F 93% 30.27 in 2.5 mi Calm Calm - N/A   Clear
3:53 AM 37.9 °F 37.0 °F 97% 30.27 in 0.8 mi Calm Calm - N/A   Clear
4:27 AM 41.0 °F 39.2 °F 93% 30.28 in 2.0 mi Calm Calm - N/A   Clear
4:35 AM 39.2 °F 39.2 °F 100% 30.28 in 3.0 mi Calm Calm - N/A   Clear
4:53 AM 39.0 °F 37.0 °F 93% 30.28 in 4.0 mi Calm Calm - N/A   Clear
4:55 AM 39.2 °F 37.4 °F 93% 30.28 in 1.2 mi Calm Calm - N/A   Clear
5:00 AM 37.4 °F 37.4 °F 100% 30.28 in 0.2 mi Calm Calm - N/A Fog Fog
5:11 AM 39.2 °F 39.2 °F 100% 30.28 in 1.0 mi Calm Calm - N/A   Clear
5:22 AM 39.2 °F 39.2 °F 100% 30.28 in 9.0 mi Calm Calm - N/A   Clear
5:53 AM 37.9 °F 37.0 °F 97% 30.28 in 5.0 mi Calm Calm - N/A   Scattered Clouds
5:55 AM 37.4 °F 37.4 °F 100% 30.28 in 1.8 mi Calm Calm - N/A   Mostly Cloudy
5:57 AM 37.4 °F 37.4 °F 100% 30.27 in 0.8 mi Calm Calm - N/A   Mist
6:07 AM 39.2 °F 39.2 °F 100% 30.27 in 0.2 mi Calm Calm - N/A Fog Fog
6:53 AM 39.9 °F 39.0 °F 97% 30.27 in 0.2 mi Calm Calm - N/A Fog Fog
6:57 AM 39.2 °F 39.2 °F 100% 30.27 in 1.2 mi Calm Calm - N/A   Mostly Cloudy
6:59 AM 39.2 °F 39.2 °F 100% 30.27 in 4.0 mi Calm Calm - N/A   Mostly Cloudy
7:33 AM 42.8 °F 42.8 °F 100% 30.27 in 9.0 mi Calm Calm - N/A   Scattered Clouds
7:53 AM 44.1 °F 44.1 °F 100% 30.27 in 10.0 mi Calm Calm - N/A   Clear
8:53 AM 53.1 °F 48.9 °F 86% 30.28 in 10.0 mi Calm Calm - 0.01 in   Clear
9:53 AM 61.0 °F 42.1 °F 50% 30.27 in 10.0 mi SSE 9.2 mph - N/A   Clear
10:53 AM 64.0 °F 41.0 °F 43% 30.26 in 10.0 mi SSE 10.4 mph - N/A   Clear
11:53 AM 66.2 °F 41.0 °F 40% 30.23 in 10.0 mi South 9.2 mph - N/A   Clear
12:53 PM 68.0 °F 42.1 °F 39% 30.21 in 10.0 mi SSE 6.9 mph - N/A   Clear
1:53 PM 69.1 °F 43.0 °F 39% 30.17 in 10.0 mi SE 8.1 mph - N/A   Partly Cloudy
2:53 PM 71.1 °F 44.1 °F 38% 30.12 in 10.0 mi South 4.6 mph - N/A   Clear
3:53 PM 71.1 °F 43.0 °F 36% 30.09 in 10.0 mi South 9.2 mph - N/A   Clear
4:53 PM 70.0 °F 45.0 °F 41% 30.06 in 10.0 mi South 8.1 mph - N/A   Clear
5:53 PM 69.1 °F 46.0 °F 44% 30.04 in 10.0 mi South 9.2 mph - N/A   Clear
6:53 PM 63.0 °F 46.9 °F 56% 30.03 in 10.0 mi South 5.8 mph - N/A   Clear
7:53 PM 60.1 °F 46.9 °F 62% 30.03 in 10.0 mi South 5.8 mph - N/A   Clear
8:53 PM 59.0 °F 48.0 °F 67% 30.02 in 10.0 mi South 6.9 mph - N/A   Clear
9:53 PM 57.9 °F 48.0 °F 70% 30.02 in 10.0 mi South 6.9 mph - N/A   Clear
10:53 PM 63.0 °F 48.0 °F 58% 30.02 in 10.0 mi South 5.8 mph - N/A   Clear
11:53 PM 63.0 °F 48.9 °F 60% 30.01 in 10.0 mi Calm Calm - N/A   Clear